Orbital Elements at Epoch 2459200.5 (2020-Dec-17.0) TDB
Reference: JPL 16 (heliocentric ecliptic J2000)
Element | Value | Uncertainty (1-sigma) | Units |
e | .09607404284364024 | 5.3169e-08 | |
a | 2.657458260094482 | 1.6504e-08 | au |
q | 2.402145501358979 | 1.435e-07 | au |
i | 2.248564367537749 | 5.0814e-06 | deg |
node | 288.4678065422909 | 0.00014985 | deg |
peri | 296.7363875882397 | 0.00015349 | deg |
M | 75.31852474284338 | 3.5859e-05 | deg |
tp | 2458869.447090629383 (2020-Jan-20.94709063) | 0.00015662 | TDB |
period | 1582.333798761056 4.33 | 1.4741e-05 4.036e-08 | d yr |
n | .2275120459929976 | 2.1194e-09 | deg/d |
Q | 2.912771018829984 | 1.809e-08 | au |
|
| | Orbit Determination Parameters
Additional Information
|